Year,Month,Day,Hour,Minute,Value (Times are PST for temperature in C)
2006,04,24,00,00,8.20
2006,04,24,00,01,8.20
2006,04,24,00,02,8.20
2006,04,24,00,03,8.10
2006,04,24,00,04,8.10
2006,04,24,00,05,8.10
2006,04,24,00,06,8.10
2006,04,24,00,07,8.10
2006,04,24,00,08,8.00
2006,04,24,00,09,8.00
2006,04,24,00,10,8.00
2006,04,24,00,11,8.00
2006,04,24,00,12,8.00
2006,04,24,00,13,7.90
2006,04,24,00,14,7.90
2006,04,24,00,15,7.90
2006,04,24,00,16,7.90
2006,04,24,00,17,7.80
2006,04,24,00,18,7.80
2006,04,24,00,19,7.80
2006,04,24,00,20,7.80
2006,04,24,00,21,7.80
2006,04,24,00,22,7.70
2006,04,24,00,23,7.70
2006,04,24,00,24,7.60
2006,04,24,00,25,7.60
2006,04,24,00,26,7.60
2006,04,24,00,27,7.50
2006,04,24,00,28,7.50
2006,04,24,00,29,7.50
2006,04,24,00,30,7.40
2006,04,24,00,31,7.40
2006,04,24,00,32,7.40
2006,04,24,00,33,7.30
2006,04,24,00,34,7.30
2006,04,24,00,35,7.30
2006,04,24,00,36,7.30
2006,04,24,00,37,7.30
2006,04,24,00,38,7.30
2006,04,24,00,39,7.30
2006,04,24,00,40,7.30
2006,04,24,00,41,7.20
2006,04,24,00,42,7.20
2006,04,24,00,43,7.20
2006,04,24,00,44,7.20
2006,04,24,00,45,7.20
2006,04,24,00,46,7.10
2006,04,24,00,47,7.10
2006,04,24,00,48,7.10
2006,04,24,00,49,7.10
2006,04,24,00,50,7.10
2006,04,24,00,51,7.00
2006,04,24,00,52,7.00
2006,04,24,00,53,7.00
2006,04,24,00,54,7.00
2006,04,24,00,55,6.90
2006,04,24,00,56,6.90
2006,04,24,00,57,6.90
2006,04,24,00,58,6.90
2006,04,24,00,59,6.90
2006,04,24,01,00,6.90
2006,04,24,01,01,6.90
2006,04,24,01,02,6.90
2006,04,24,01,03,6.80
2006,04,24,01,04,6.80
2006,04,24,01,05,6.80
2006,04,24,01,06,6.80
2006,04,24,01,07,6.80
2006,04,24,01,08,6.80
2006,04,24,01,09,6.70
2006,04,24,01,10,6.70
2006,04,24,01,11,6.70
2006,04,24,01,12,6.60
2006,04,24,01,13,6.60
2006,04,24,01,14,6.60
2006,04,24,01,15,6.60
2006,04,24,01,16,6.60
2006,04,24,01,17,6.60
2006,04,24,01,18,6.60
2006,04,24,01,19,6.60
2006,04,24,01,20,6.60
2006,04,24,01,21,6.60
2006,04,24,01,22,6.60
2006,04,24,01,23,6.50
2006,04,24,01,24,6.40
2006,04,24,01,25,6.40
2006,04,24,01,26,6.40
2006,04,24,01,27,6.40
2006,04,24,01,28,6.40
2006,04,24,01,29,6.30
2006,04,24,01,30,6.30
2006,04,24,01,31,6.30
2006,04,24,01,32,6.20
2006,04,24,01,33,6.20
2006,04,24,01,34,6.20
2006,04,24,01,35,6.20
2006,04,24,01,36,6.20
2006,04,24,01,37,6.20
2006,04,24,01,38,6.10
2006,04,24,01,39,6.10
2006,04,24,01,40,6.10
2006,04,24,01,41,6.10
2006,04,24,01,42,6.00
2006,04,24,01,43,6.00
2006,04,24,01,44,6.00
2006,04,24,01,45,6.00
2006,04,24,01,46,5.90
2006,04,24,01,47,5.90
2006,04,24,01,48,5.90
2006,04,24,01,49,5.90
2006,04,24,01,50,5.90
2006,04,24,01,51,5.90
2006,04,24,01,52,5.80
2006,04,24,01,53,5.80
2006,04,24,01,54,5.80
2006,04,24,01,55,5.80
2006,04,24,01,56,5.80
2006,04,24,01,57,5.80
2006,04,24,01,58,5.80
2006,04,24,01,59,5.80
2006,04,24,02,00,5.70
2006,04,24,02,01,5.70
2006,04,24,02,02,5.70
2006,04,24,02,03,5.70
2006,04,24,02,04,5.70
2006,04,24,02,05,5.70
2006,04,24,02,06,5.70
2006,04,24,02,07,5.60
2006,04,24,02,08,5.60
2006,04,24,02,09,5.60
2006,04,24,02,10,5.60
2006,04,24,02,11,5.50
2006,04,24,02,12,5.50
2006,04,24,02,13,5.50
2006,04,24,02,14,5.50
2006,04,24,02,15,5.40
2006,04,24,02,16,5.40
2006,04,24,02,17,5.40
2006,04,24,02,18,5.30
2006,04,24,02,19,5.30
2006,04,24,02,20,5.30
2006,04,24,02,21,5.30
2006,04,24,02,22,5.30
2006,04,24,02,23,5.30
2006,04,24,02,24,5.20
2006,04,24,02,25,5.20
2006,04,24,02,26,5.20
2006,04,24,02,27,5.20
2006,04,24,02,28,5.20
2006,04,24,02,29,5.20
2006,04,24,02,30,5.20
2006,04,24,02,31,5.20
2006,04,24,02,32,5.20
2006,04,24,02,33,5.20
2006,04,24,02,34,5.20
2006,04,24,02,35,5.20
2006,04,24,02,36,5.20
2006,04,24,02,37,5.10
2006,04,24,02,38,5.10
2006,04,24,02,39,5.10
2006,04,24,02,40,5.10
2006,04,24,02,41,5.10
2006,04,24,02,42,5.10
2006,04,24,02,43,5.10
2006,04,24,02,44,5.10
2006,04,24,02,45,5.00
2006,04,24,02,46,4.90
2006,04,24,02,47,4.90
2006,04,24,02,48,4.90
2006,04,24,02,49,4.90
2006,04,24,02,50,4.90
2006,04,24,02,51,4.90
2006,04,24,02,52,4.90
2006,04,24,02,53,4.90
2006,04,24,02,54,4.90
2006,04,24,02,55,4.90
2006,04,24,02,56,4.90
2006,04,24,02,57,4.90
2006,04,24,02,58,4.90
2006,04,24,02,59,4.90
2006,04,24,03,00,4.90
2006,04,24,03,01,4.90
2006,04,24,03,02,4.90
2006,04,24,03,03,4.90
2006,04,24,03,04,4.90
2006,04,24,03,05,4.90
2006,04,24,03,06,4.90
2006,04,24,03,07,4.90
2006,04,24,03,08,4.90
2006,04,24,03,09,4.90
2006,04,24,03,10,4.90
2006,04,24,03,11,4.90
2006,04,24,03,12,4.90
2006,04,24,03,13,4.90
2006,04,24,03,14,4.90
2006,04,24,03,15,4.90
2006,04,24,03,16,4.90
2006,04,24,03,17,4.90
2006,04,24,03,18,4.80
2006,04,24,03,19,4.80
2006,04,24,03,20,4.80
2006,04,24,03,21,4.80
2006,04,24,03,22,4.80
2006,04,24,03,23,4.90
2006,04,24,03,24,4.90
2006,04,24,03,25,5.00
2006,04,24,03,26,5.10
2006,04,24,03,27,5.10
2006,04,24,03,28,5.10
2006,04,24,03,29,5.10
2006,04,24,03,30,5.10
2006,04,24,03,31,5.10
2006,04,24,03,32,5.10
2006,04,24,03,33,5.20
2006,04,24,03,34,5.20
2006,04,24,03,35,5.20
2006,04,24,03,36,5.20
2006,04,24,03,37,5.20
2006,04,24,03,38,5.20
2006,04,24,03,39,5.10
2006,04,24,03,40,5.10
2006,04,24,03,41,5.10
2006,04,24,03,42,5.10
2006,04,24,03,43,5.10
2006,04,24,03,44,5.10
2006,04,24,03,45,5.10
2006,04,24,03,46,5.10
2006,04,24,03,47,5.10
2006,04,24,03,48,5.20
2006,04,24,03,49,5.20
2006,04,24,03,50,5.20
2006,04,24,03,51,5.20
2006,04,24,03,52,5.20
2006,04,24,03,53,5.20
2006,04,24,03,54,5.20
2006,04,24,03,55,5.20
2006,04,24,03,56,5.20
2006,04,24,03,57,5.20
2006,04,24,03,58,5.20
2006,04,24,03,59,5.20
2006,04,24,04,00,5.20
2006,04,24,04,01,5.20
2006,04,24,04,02,5.30
2006,04,24,04,03,5.20
2006,04,24,04,04,5.20
2006,04,24,04,05,5.20
2006,04,24,04,06,5.20
2006,04,24,04,07,5.20
2006,04,24,04,08,5.20
2006,04,24,04,09,5.20
2006,04,24,04,10,5.30
2006,04,24,04,11,5.30
2006,04,24,04,12,5.30
2006,04,24,04,13,5.30
2006,04,24,04,14,5.30
2006,04,24,04,15,5.20
2006,04,24,04,16,5.20
2006,04,24,04,17,5.20
2006,04,24,04,18,5.20
2006,04,24,04,19,5.20
2006,04,24,04,20,5.20
2006,04,24,04,21,5.20
2006,04,24,04,22,5.20
2006,04,24,04,23,5.30
2006,04,24,04,24,5.30
2006,04,24,04,25,5.30
2006,04,24,04,26,5.40
2006,04,24,04,27,5.40
2006,04,24,04,28,5.40
2006,04,24,04,29,5.50
2006,04,24,04,30,5.50
2006,04,24,04,31,5.50
2006,04,24,04,32,5.50
2006,04,24,04,33,5.60
2006,04,24,04,34,5.60
2006,04,24,04,35,5.60
2006,04,24,04,36,5.60
2006,04,24,04,37,5.60
2006,04,24,04,38,5.60
2006,04,24,04,39,5.60
2006,04,24,04,40,5.60
2006,04,24,04,41,5.60
2006,04,24,04,42,5.60
2006,04,24,04,43,5.60
2006,04,24,04,44,5.50
2006,04,24,04,45,5.50
2006,04,24,04,46,5.50
2006,04,24,04,47,5.40
2006,04,24,04,48,5.40
2006,04,24,04,49,5.30
2006,04,24,04,50,5.30
2006,04,24,04,51,5.20
2006,04,24,04,52,5.10
2006,04,24,04,53,5.10
2006,04,24,04,54,5.00
2006,04,24,04,55,4.90
2006,04,24,04,56,4.90
2006,04,24,04,57,4.90
2006,04,24,04,58,4.80
2006,04,24,04,59,4.80
2006,04,24,05,00,4.70
2006,04,24,05,01,4.70
2006,04,24,05,02,4.60
2006,04,24,05,03,4.60
2006,04,24,05,04,4.60
2006,04,24,05,05,4.60
2006,04,24,05,06,4.50
2006,04,24,05,07,4.50
2006,04,24,05,08,4.40
2006,04,24,05,09,4.40
2006,04,24,05,10,4.40
2006,04,24,05,11,4.40
2006,04,24,05,12,4.40
2006,04,24,05,13,4.30
2006,04,24,05,14,4.30
2006,04,24,05,15,4.30
2006,04,24,05,16,4.30
2006,04,24,05,17,4.40
2006,04,24,05,18,4.40
2006,04,24,05,19,4.40
2006,04,24,05,20,4.40
2006,04,24,05,21,4.40
2006,04,24,05,22,4.40
2006,04,24,05,23,4.40
2006,04,24,05,24,4.40
2006,04,24,05,25,4.40
2006,04,24,05,26,4.40
2006,04,24,05,27,4.40
2006,04,24,05,28,4.40
2006,04,24,05,29,4.40
2006,04,24,05,30,4.40
2006,04,24,05,31,4.30
2006,04,24,05,32,4.30
2006,04,24,05,33,4.30
2006,04,24,05,34,4.30
2006,04,24,05,35,4.30
2006,04,24,05,36,4.30
2006,04,24,05,37,4.30
2006,04,24,05,38,4.30
2006,04,24,05,39,4.30
2006,04,24,05,40,4.30
2006,04,24,05,41,4.30
2006,04,24,05,42,4.40
2006,04,24,05,43,4.40
2006,04,24,05,44,4.50
2006,04,24,05,45,4.50
2006,04,24,05,46,4.50
2006,04,24,05,47,4.50
2006,04,24,05,48,4.50
2006,04,24,05,49,4.40
2006,04,24,05,50,4.40
2006,04,24,05,51,4.40
2006,04,24,05,52,4.40
2006,04,24,05,53,4.40
2006,04,24,05,54,4.40
2006,04,24,05,55,4.40
2006,04,24,05,56,4.40
2006,04,24,05,57,4.40
2006,04,24,05,58,4.40
2006,04,24,05,59,4.40
2006,04,24,06,00,4.30
2006,04,24,06,01,4.30
2006,04,24,06,02,4.30
2006,04,24,06,03,4.30
2006,04,24,06,04,4.30
2006,04,24,06,05,4.30
2006,04,24,06,06,4.30
2006,04,24,06,07,4.30
2006,04,24,06,08,4.30
2006,04,24,06,09,4.30
2006,04,24,06,10,4.30
2006,04,24,06,11,4.40
2006,04,24,06,12,4.40
2006,04,24,06,13,4.40
2006,04,24,06,14,4.40
2006,04,24,06,15,4.40
2006,04,24,06,16,4.40
2006,04,24,06,17,4.50
2006,04,24,06,18,4.50
2006,04,24,06,19,4.50
2006,04,24,06,20,4.50
2006,04,24,06,21,4.50
2006,04,24,06,22,4.50
2006,04,24,06,23,4.50
2006,04,24,06,24,4.50
2006,04,24,06,25,4.50
2006,04,24,06,26,4.50
2006,04,24,06,27,4.50
2006,04,24,06,28,4.50
2006,04,24,06,29,4.50
2006,04,24,06,30,4.50
2006,04,24,06,31,4.50
2006,04,24,06,32,4.50
2006,04,24,06,33,4.60
2006,04,24,06,34,4.60
2006,04,24,06,35,4.60
2006,04,24,06,36,4.60
2006,04,24,06,37,4.60
2006,04,24,06,38,4.60
2006,04,24,06,39,4.70
2006,04,24,06,40,4.80
2006,04,24,06,41,4.90
2006,04,24,06,42,5.10
2006,04,24,06,43,5.20
2006,04,24,06,44,5.40
2006,04,24,06,45,5.50
2006,04,24,06,46,5.60
2006,04,24,06,47,5.70
2006,04,24,06,48,5.90
2006,04,24,06,49,6.00
2006,04,24,06,50,6.20
2006,04,24,06,51,6.30
2006,04,24,06,52,6.40
2006,04,24,06,53,6.50
2006,04,24,06,54,6.70
2006,04,24,06,55,6.90
2006,04,24,06,56,7.00
2006,04,24,06,57,7.20
2006,04,24,06,58,7.40
2006,04,24,06,59,7.60
2006,04,24,07,00,7.70
2006,04,24,07,01,7.90
2006,04,24,07,02,8.00
2006,04,24,07,03,8.00
2006,04,24,07,04,8.10
2006,04,24,07,05,8.10
2006,04,24,07,06,8.10
2006,04,24,07,07,8.00
2006,04,24,07,08,7.90
2006,04,24,07,09,7.70
2006,04,24,07,10,7.60
2006,04,24,07,11,7.50
2006,04,24,07,12,7.40
2006,04,24,07,13,7.30
2006,04,24,07,14,7.30
2006,04,24,07,15,7.20
2006,04,24,07,16,7.20
2006,04,24,07,17,7.10
2006,04,24,07,18,7.10
2006,04,24,07,19,7.10
2006,04,24,07,20,7.10
2006,04,24,07,21,7.00
2006,04,24,07,22,7.00
2006,04,24,07,23,7.00
2006,04,24,07,24,7.00
2006,04,24,07,25,7.10
2006,04,24,07,26,7.10
2006,04,24,07,27,7.10
2006,04,24,07,28,7.10
2006,04,24,07,29,7.20
2006,04,24,07,30,7.20
2006,04,24,07,31,7.30
2006,04,24,07,32,7.30
2006,04,24,07,33,7.30
2006,04,24,07,34,7.30
2006,04,24,07,35,7.40
2006,04,24,07,36,7.40
2006,04,24,07,37,7.50
2006,04,24,07,38,7.50
2006,04,24,07,39,7.60
2006,04,24,07,40,7.70
2006,04,24,07,41,7.80
2006,04,24,07,42,7.80
2006,04,24,07,43,7.80
2006,04,24,07,44,7.90
2006,04,24,07,45,7.90
2006,04,24,07,46,8.00
2006,04,24,07,47,8.00
2006,04,24,07,48,8.10
2006,04,24,07,49,8.20
2006,04,24,07,50,8.20
2006,04,24,07,51,8.40
2006,04,24,07,52,8.50
2006,04,24,07,53,8.60
2006,04,24,07,54,8.80
2006,04,24,07,55,8.90
2006,04,24,07,56,9.00
2006,04,24,07,57,9.10
2006,04,24,07,58,9.20
2006,04,24,07,59,9.30
2006,04,24,08,00,9.40
2006,04,24,08,01,9.50
2006,04,24,08,02,9.70
2006,04,24,08,03,9.90
2006,04,24,08,04,10.10
2006,04,24,08,05,10.30
2006,04,24,08,06,10.50
2006,04,24,08,07,10.60
2006,04,24,08,08,10.80
2006,04,24,08,09,10.90
2006,04,24,08,10,11.10
2006,04,24,08,11,11.30
2006,04,24,08,12,11.40
2006,04,24,08,13,11.60
2006,04,24,08,14,11.80
2006,04,24,08,15,11.90
2006,04,24,08,16,12.00
2006,04,24,08,17,12.10
2006,04,24,08,18,12.20
2006,04,24,08,19,12.30
2006,04,24,08,20,12.40
2006,04,24,08,21,12.50
2006,04,24,08,22,12.50
2006,04,24,08,23,12.70
2006,04,24,08,24,12.80
2006,04,24,08,25,12.90
2006,04,24,08,26,13.00
2006,04,24,08,27,13.10
2006,04,24,08,28,13.20
2006,04,24,08,29,13.30
2006,04,24,08,30,13.40
2006,04,24,08,31,13.50
2006,04,24,08,32,13.50
2006,04,24,08,33,13.60
2006,04,24,08,34,13.70
2006,04,24,08,35,13.70
2006,04,24,08,36,13.70
2006,04,24,08,37,13.80
2006,04,24,08,38,13.90
2006,04,24,08,39,13.90
2006,04,24,08,40,14.00
2006,04,24,08,41,14.00
2006,04,24,08,42,14.10
2006,04,24,08,43,14.20
2006,04,24,08,44,14.20
2006,04,24,08,45,14.20
2006,04,24,08,46,14.30
2006,04,24,08,47,14.40
2006,04,24,08,48,14.40
2006,04,24,08,49,14.50
2006,04,24,08,50,14.50
2006,04,24,08,51,14.50
2006,04,24,08,52,14.60
2006,04,24,08,53,14.60
2006,04,24,08,54,14.70
2006,04,24,08,55,14.70
2006,04,24,08,56,14.80
2006,04,24,08,57,14.80
2006,04,24,08,58,14.90
2006,04,24,08,59,15.00
2006,04,24,09,00,15.00
2006,04,24,09,01,15.10
2006,04,24,09,02,15.10
2006,04,24,09,03,15.20
2006,04,24,09,04,15.20
2006,04,24,09,05,15.30
2006,04,24,09,06,15.30
2006,04,24,09,07,15.30
2006,04,24,09,08,15.30
2006,04,24,09,09,15.30
2006,04,24,09,10,15.40
2006,04,24,09,11,15.40
2006,04,24,09,12,15.40
2006,04,24,09,13,15.40
2006,04,24,09,14,15.30
2006,04,24,09,15,15.30
2006,04,24,09,16,15.30
2006,04,24,09,17,15.30
2006,04,24,09,18,15.30
2006,04,24,09,19,15.30
2006,04,24,09,20,15.30
2006,04,24,09,21,15.30
2006,04,24,09,22,15.30
2006,04,24,09,23,15.30
2006,04,24,09,24,15.30
2006,04,24,09,25,15.30
2006,04,24,09,26,15.30
2006,04,24,09,27,15.30
2006,04,24,09,28,15.30
2006,04,24,09,29,15.30
2006,04,24,09,30,15.30
2006,04,24,09,31,15.30
2006,04,24,09,32,15.30
2006,04,24,09,33,15.30
2006,04,24,09,34,15.30
2006,04,24,09,35,15.30
2006,04,24,09,36,15.40
2006,04,24,09,37,15.50
2006,04,24,09,38,15.50
2006,04,24,09,39,15.60
2006,04,24,09,40,15.60
2006,04,24,09,41,15.50
2006,04,24,09,42,15.30
2006,04,24,09,43,15.30
2006,04,24,09,44,15.30
2006,04,24,09,45,15.30
2006,04,24,09,46,15.30
2006,04,24,09,47,15.30
2006,04,24,09,48,15.20
2006,04,24,09,49,15.30
2006,04,24,09,50,15.30
2006,04,24,09,51,15.40
2006,04,24,09,52,15.40
2006,04,24,09,53,15.50
2006,04,24,09,54,15.50
2006,04,24,09,55,15.60
2006,04,24,09,56,15.70
2006,04,24,09,57,15.80
2006,04,24,09,58,15.80
2006,04,24,09,59,15.80
2006,04,24,10,00,15.80
2006,04,24,10,01,15.80
2006,04,24,10,02,15.80
2006,04,24,10,03,15.80
2006,04,24,10,04,15.70
2006,04,24,10,05,15.70
2006,04,24,10,06,15.60
2006,04,24,10,07,15.60
2006,04,24,10,08,15.50
2006,04,24,10,09,15.50
2006,04,24,10,10,15.50
2006,04,24,10,11,15.60
2006,04,24,10,12,15.70
2006,04,24,10,13,15.70
2006,04,24,10,14,15.80
2006,04,24,10,15,15.80
2006,04,24,10,16,15.90
2006,04,24,10,17,15.90
2006,04,24,10,18,15.90
2006,04,24,10,19,15.90
2006,04,24,10,20,15.90
2006,04,24,10,21,16.00
2006,04,24,10,22,16.10
2006,04,24,10,23,16.10
2006,04,24,10,24,16.10
2006,04,24,10,25,16.20
2006,04,24,10,26,16.20
2006,04,24,10,27,16.30
2006,04,24,10,28,16.30
2006,04,24,10,29,16.40
2006,04,24,10,30,16.40
2006,04,24,10,31,16.40
2006,04,24,10,32,16.40
2006,04,24,10,33,16.40
2006,04,24,10,34,16.40
2006,04,24,10,35,16.40
2006,04,24,10,36,16.40
2006,04,24,10,37,16.50
2006,04,24,10,38,16.60
2006,04,24,10,39,16.70
2006,04,24,10,40,16.80
2006,04,24,10,41,16.90
2006,04,24,10,42,17.00
2006,04,24,10,43,17.10
2006,04,24,10,44,17.20
2006,04,24,10,45,17.40
2006,04,24,10,46,17.40
2006,04,24,10,47,17.40
2006,04,24,10,48,17.40
2006,04,24,10,49,17.50
2006,04,24,10,50,17.50
2006,04,24,10,51,17.50
2006,04,24,10,52,17.50
2006,04,24,10,53,17.60
2006,04,24,10,54,17.70
2006,04,24,10,55,17.70
2006,04,24,10,56,17.70
2006,04,24,10,57,17.70
2006,04,24,10,58,17.60
2006,04,24,10,59,17.50
2006,04,24,11,00,17.60
2006,04,24,11,01,17.60
2006,04,24,11,02,17.70
2006,04,24,11,03,17.70
2006,04,24,11,04,17.80
2006,04,24,11,05,17.80
2006,04,24,11,06,17.90
2006,04,24,11,07,17.90
2006,04,24,11,08,17.90
2006,04,24,11,09,17.90
2006,04,24,11,10,17.90
2006,04,24,11,11,18.00
2006,04,24,11,12,18.10
2006,04,24,11,13,18.10
2006,04,24,11,14,18.20
2006,04,24,11,15,18.30
2006,04,24,11,16,18.30
2006,04,24,11,17,18.40
2006,04,24,11,18,18.40
2006,04,24,11,19,18.40
2006,04,24,11,20,18.40
2006,04,24,11,21,18.40
2006,04,24,11,22,18.40
2006,04,24,11,23,18.40
2006,04,24,11,24,18.50
2006,04,24,11,25,18.50
2006,04,24,11,26,18.60
2006,04,24,11,27,18.70
2006,04,24,11,28,18.70
2006,04,24,11,29,18.70
2006,04,24,11,30,18.70
2006,04,24,11,31,18.80
2006,04,24,11,32,18.80
2006,04,24,11,33,18.80
2006,04,24,11,34,18.70
2006,04,24,11,35,18.70
2006,04,24,11,36,18.70
2006,04,24,11,37,18.70
2006,04,24,11,38,18.60
2006,04,24,11,39,18.60
2006,04,24,11,40,18.50
2006,04,24,11,41,18.50
2006,04,24,11,42,18.50
2006,04,24,11,43,18.50
2006,04,24,11,44,18.60
2006,04,24,11,45,18.70
2006,04,24,11,46,18.70
2006,04,24,11,47,18.80
2006,04,24,11,48,18.80
2006,04,24,11,49,18.90
2006,04,24,11,50,18.90
2006,04,24,11,51,18.90
2006,04,24,11,52,19.00
2006,04,24,11,53,19.10
2006,04,24,11,54,19.20
2006,04,24,11,55,19.10
2006,04,24,11,56,19.10
2006,04,24,11,57,19.10
2006,04,24,11,58,19.20
2006,04,24,11,59,19.30
2006,04,24,12,00,19.40
2006,04,24,12,01,19.50
2006,04,24,12,02,19.60
2006,04,24,12,03,19.60
2006,04,24,12,04,19.60
2006,04,24,12,05,19.60
2006,04,24,12,06,19.70
2006,04,24,12,07,19.80
2006,04,24,12,08,19.80
2006,04,24,12,09,19.90
2006,04,24,12,10,19.80
2006,04,24,12,11,19.80
2006,04,24,12,12,19.90
2006,04,24,12,13,19.90
2006,04,24,12,14,19.90
2006,04,24,12,15,19.90
2006,04,24,12,16,20.00
2006,04,24,12,17,20.10
2006,04,24,12,18,20.10
2006,04,24,12,19,20.00
2006,04,24,12,20,19.90
2006,04,24,12,21,19.90
2006,04,24,12,22,19.90
2006,04,24,12,23,20.00
2006,04,24,12,24,20.10
2006,04,24,12,25,20.20
2006,04,24,12,26,20.20
2006,04,24,12,27,20.20
2006,04,24,12,28,20.20
2006,04,24,12,29,20.10
2006,04,24,12,30,20.10
2006,04,24,12,31,20.10
2006,04,24,12,32,20.10
2006,04,24,12,33,20.10
2006,04,24,12,34,20.10
2006,04,24,12,35,20.10
2006,04,24,12,36,20.20
2006,04,24,12,37,20.20
2006,04,24,12,38,20.20
2006,04,24,12,39,20.20
2006,04,24,12,40,20.20
2006,04,24,12,41,20.20
2006,04,24,12,42,20.20
2006,04,24,12,43,20.20
2006,04,24,12,44,20.30
2006,04,24,12,45,20.40
2006,04,24,12,46,20.40
2006,04,24,12,47,20.50
2006,04,24,12,48,20.50
2006,04,24,12,49,20.60
2006,04,24,12,50,20.70
2006,04,24,12,51,20.80
2006,04,24,12,52,20.80
2006,04,24,12,53,20.90
2006,04,24,12,54,20.90
2006,04,24,12,55,21.00
2006,04,24,12,56,21.10
2006,04,24,12,57,21.10
2006,04,24,12,58,21.30
2006,04,24,12,59,21.30
2006,04,24,13,00,21.30
2006,04,24,13,01,21.30
2006,04,24,13,02,21.30
2006,04,24,13,03,21.40
2006,04,24,13,04,21.50
2006,04,24,13,05,21.60
2006,04,24,13,06,21.60
2006,04,24,13,07,21.60
2006,04,24,13,08,21.70
2006,04,24,13,09,21.70
2006,04,24,13,10,21.70
2006,04,24,13,11,21.70
2006,04,24,13,12,21.70
2006,04,24,13,13,21.70
2006,04,24,13,14,21.60
2006,04,24,13,15,21.60
2006,04,24,13,16,21.50
2006,04,24,13,17,21.30
2006,04,24,13,18,21.30
2006,04,24,13,19,21.20
2006,04,24,13,20,21.20
2006,04,24,13,21,21.20
2006,04,24,13,22,21.20
2006,04,24,13,23,21.30
2006,04,24,13,24,21.30
2006,04,24,13,25,21.40
2006,04,24,13,26,21.50
2006,04,24,13,27,21.60
2006,04,24,13,28,21.70
2006,04,24,13,29,21.80
2006,04,24,13,30,22.00
2006,04,24,13,31,22.10
2006,04,24,13,32,22.10
2006,04,24,13,33,22.10
2006,04,24,13,34,22.10
2006,04,24,13,35,22.00
2006,04,24,13,36,21.90
2006,04,24,13,37,21.70
2006,04,24,13,38,21.50
2006,04,24,13,39,21.40
2006,04,24,13,40,21.40
2006,04,24,13,41,21.40
2006,04,24,13,42,21.40
2006,04,24,13,43,21.40
2006,04,24,13,44,21.40
2006,04,24,13,45,21.40
2006,04,24,13,46,21.40
2006,04,24,13,47,21.40
2006,04,24,13,48,21.40
2006,04,24,13,49,21.40
2006,04,24,13,50,21.40
2006,04,24,13,51,21.40
2006,04,24,13,52,21.30
2006,04,24,13,53,21.10
2006,04,24,13,54,21.00
2006,04,24,13,55,21.00
2006,04,24,13,56,21.00
2006,04,24,13,57,20.90
2006,04,24,13,58,20.90
2006,04,24,13,59,21.00
2006,04,24,14,00,21.00
2006,04,24,14,01,21.00
2006,04,24,14,02,21.00
2006,04,24,14,03,21.10
2006,04,24,14,04,21.10
2006,04,24,14,05,21.00
2006,04,24,14,06,21.00
2006,04,24,14,07,20.90
2006,04,24,14,08,20.90
2006,04,24,14,09,20.90
2006,04,24,14,10,20.90
2006,04,24,14,11,20.90
2006,04,24,14,12,20.90
2006,04,24,14,13,20.90
2006,04,24,14,14,20.90
2006,04,24,14,15,20.90
2006,04,24,14,16,21.00
2006,04,24,14,17,21.10
2006,04,24,14,18,21.10
2006,04,24,14,19,21.20
2006,04,24,14,20,21.30
2006,04,24,14,21,21.30
2006,04,24,14,22,21.30
2006,04,24,14,23,21.30
2006,04,24,14,24,21.30
2006,04,24,14,25,21.40
2006,04,24,14,26,21.40
2006,04,24,14,27,21.50
2006,04,24,14,28,21.60
2006,04,24,14,29,21.80
2006,04,24,14,30,22.00
2006,04,24,14,31,22.10
2006,04,24,14,32,22.20
2006,04,24,14,33,22.20
2006,04,24,14,34,22.20
2006,04,24,14,35,22.30
2006,04,24,14,36,22.30
2006,04,24,14,37,22.20
2006,04,24,14,38,22.20
2006,04,24,14,39,22.10
2006,04,24,14,40,22.10
2006,04,24,14,41,22.00
2006,04,24,14,42,21.90
2006,04,24,14,43,21.80
2006,04,24,14,44,21.80
2006,04,24,14,45,21.80
2006,04,24,14,46,21.80
2006,04,24,14,47,21.80
2006,04,24,14,48,21.80
2006,04,24,14,49,21.90
2006,04,24,14,50,21.80
2006,04,24,14,51,21.70
2006,04,24,14,52,21.70
2006,04,24,14,53,21.70
2006,04,24,14,54,21.70
2006,04,24,14,55,21.60
2006,04,24,14,56,21.60
2006,04,24,14,57,21.60
2006,04,24,14,58,21.60
2006,04,24,14,59,21.60
2006,04,24,15,00,21.50
2006,04,24,15,01,21.40
2006,04,24,15,02,21.40
2006,04,24,15,03,21.30
2006,04,24,15,04,21.30
2006,04,24,15,05,21.30
2006,04,24,15,06,21.30
2006,04,24,15,07,21.30
2006,04,24,15,08,21.30
2006,04,24,15,09,21.30
2006,04,24,15,10,21.20
2006,04,24,15,11,21.10
2006,04,24,15,12,21.00
2006,04,24,15,13,20.70
2006,04,24,15,14,20.50
2006,04,24,15,15,20.30
2006,04,24,15,16,20.20
2006,04,24,15,17,20.10
2006,04,24,15,18,20.00
2006,04,24,15,19,19.90
2006,04,24,15,20,19.80
2006,04,24,15,21,19.70
2006,04,24,15,22,19.60
2006,04,24,15,23,19.60
2006,04,24,15,24,19.70
2006,04,24,15,25,19.70
2006,04,24,15,26,19.80
2006,04,24,15,27,19.90
2006,04,24,15,28,20.00
2006,04,24,15,29,20.10
2006,04,24,15,30,20.20
2006,04,24,15,31,20.40
2006,04,24,15,32,20.60
2006,04,24,15,33,20.70
2006,04,24,15,34,20.80
2006,04,24,15,35,20.80
2006,04,24,15,36,20.80
2006,04,24,15,37,20.90
2006,04,24,15,38,21.00
2006,04,24,15,39,21.10
2006,04,24,15,40,21.20
2006,04,24,15,41,21.30
2006,04,24,15,42,21.30
2006,04,24,15,43,21.30
2006,04,24,15,44,21.30
2006,04,24,15,45,21.30
2006,04,24,15,46,21.10
2006,04,24,15,47,21.00
2006,04,24,15,48,20.80
2006,04,24,15,49,20.50
2006,04,24,15,50,20.40
2006,04,24,15,51,20.20
2006,04,24,15,52,20.10
2006,04,24,15,53,20.00
2006,04,24,15,54,20.00
2006,04,24,15,55,19.90
2006,04,24,15,56,19.90
2006,04,24,15,57,19.90
2006,04,24,15,58,19.90
2006,04,24,15,59,19.80
2006,04,24,16,00,19.90
2006,04,24,16,01,19.90
2006,04,24,16,02,20.10
2006,04,24,16,03,20.10
2006,04,24,16,04,20.20
2006,04,24,16,05,20.20
2006,04,24,16,06,20.20
2006,04,24,16,07,20.20
2006,04,24,16,08,20.20
2006,04,24,16,09,20.20
2006,04,24,16,10,20.30
2006,04,24,16,11,20.30
2006,04,24,16,12,20.30
2006,04,24,16,13,20.20
2006,04,24,16,14,20.30
2006,04,24,16,15,20.30
2006,04,24,16,16,20.40
2006,04,24,16,17,20.40
2006,04,24,16,18,20.50
2006,04,24,16,19,20.50
2006,04,24,16,20,20.50
2006,04,24,16,21,20.60
2006,04,24,16,22,20.60
2006,04,24,16,23,20.70
2006,04,24,16,24,20.80
2006,04,24,16,25,20.80
2006,04,24,16,26,20.70
2006,04,24,16,27,20.70
2006,04,24,16,28,20.70
2006,04,24,16,29,20.70
2006,04,24,16,30,20.70
2006,04,24,16,31,20.70
2006,04,24,16,32,20.80
2006,04,24,16,33,20.80
2006,04,24,16,34,20.90
2006,04,24,16,35,21.00
2006,04,24,16,36,21.10
2006,04,24,16,37,21.20
2006,04,24,16,38,21.30
2006,04,24,16,39,21.40
2006,04,24,16,40,21.60
2006,04,24,16,41,21.60
2006,04,24,16,42,21.70
2006,04,24,16,43,21.70
2006,04,24,16,44,21.80
2006,04,24,16,45,21.80
2006,04,24,16,46,21.80
2006,04,24,16,47,21.70
2006,04,24,16,48,21.70
2006,04,24,16,49,21.80
2006,04,24,16,50,21.80
2006,04,24,16,51,21.90
2006,04,24,16,52,22.00
2006,04,24,16,53,22.00
2006,04,24,16,54,22.10
2006,04,24,16,55,22.10
2006,04,24,16,56,22.20
2006,04,24,16,57,22.30
2006,04,24,16,58,22.40
2006,04,24,16,59,22.40
2006,04,24,17,00,22.50
2006,04,24,17,01,22.50
2006,04,24,17,02,22.60
2006,04,24,17,03,22.60
2006,04,24,17,04,22.70
2006,04,24,17,05,22.60
2006,04,24,17,06,22.50
2006,04,24,17,07,22.50
2006,04,24,17,08,22.50
2006,04,24,17,09,22.60
2006,04,24,17,10,22.50
2006,04,24,17,11,22.40
2006,04,24,17,12,22.40
2006,04,24,17,13,22.30
2006,04,24,17,14,22.30
2006,04,24,17,15,22.30
2006,04,24,17,16,22.30
2006,04,24,17,17,22.40
2006,04,24,17,18,22.40
2006,04,24,17,19,22.40
2006,04,24,17,20,22.40
2006,04,24,17,21,22.40
2006,04,24,17,22,22.40
2006,04,24,17,23,22.40
2006,04,24,17,24,22.30
2006,04,24,17,25,22.30
2006,04,24,17,26,22.30
2006,04,24,17,27,22.20
2006,04,24,17,28,22.20
2006,04,24,17,29,22.10
2006,04,24,17,30,22.00
2006,04,24,17,31,22.00
2006,04,24,17,32,21.90
2006,04,24,17,33,21.90
2006,04,24,17,34,21.90
2006,04,24,17,35,21.90
2006,04,24,17,36,21.90
2006,04,24,17,37,22.00
2006,04,24,17,38,22.00
2006,04,24,17,39,22.00
2006,04,24,17,40,22.10